Temperature
27 26 25 24 23 22 22 21 21 21 21 20 20 20 20 20 20 20 20 19 19 19 19 19 19 19 19 19 18 18 18 18 18 18 18 19 19 19 19 18 18 18 18
27 26 25 24 23 22 22 21 21 21 21 21 20 20 20 20 20 20 20 19 19 19 19 19 19 19 19 18 18 18 18 18 18 18 18 18 18 19 18 18 18 18 18
27 26 25 24 23 22 22 21 21 21 21 20 20 20 20 20 20 20 20 19 19 19 19 19 19 19 18 18 18 18 18 18 18 18 18 18 18 18 18 18 18 18 18
27 26 25 24 23 22 22 21 21 21 21 20 20 20 20 20 20 20 20 19 19 19 19 19 19 19 18 18 18 18 18 18 18 18 18 18 18 18 18 18 18 18 18
28 26 25 24 24 23 22 21 21 21 21 21 20 20 20 20 20 20 20 19 19 19 19 19 19 18 18 18 18 18 18 18 18 18 18 18 18 18 18 18 18 18 18
28 26 25 24 24 23 22 21 21 21 21 20 20 20 20 20 20 20 19 19 19 19 19 18 19 18 18 18 18 18 18 18 18 18 18 18 18 18 18 18 17 17 17
28 27 26 25 24 23 22 22 21 21 21 21 20 20 20 20 20 19 19 19 19 19 19 19 19 18 18 18 18 18 18 18 18 18 18 18 17 18 18 18 17 17 17
28 27 26 25 24 23 23 22 21 21 21 20 20 20 20 20 19 19 19 19 19 19 19 19 18 18 18 18 18 18 18 18 18 17 17 17 17 17 17 17 17 17 17
28 27 26 25 24 24 23 22 21 21 20 20 20 20 20 19 19 19 19 19 19 19 18 18 18 18 18 18 18 18 17 17 17 17 17 17 17 17 17 17 17 17 16
28 27 26 25 24 24 23 22 21 21 20 20 20 20 20 19 19 19 19 18 18 18 18 18 18 18 18 18 17 17 17 17 17 17 17 17 17 16 17 17 17 17 17
27 27 26 25 24 24 23 22 21 20 20 20 20 19 19 19 19 19 18 18 18 18 18 18 18 18 17 17 17 17 17 17 17 17 17 17 16 16 16 16 16 16 16
27 26 25 25 24 23 22 22 21 21 20 20 20 19 19 19 19 19 18 18 18 18 18 17 17 17 17 17 17 17 17 17 17 16 16 16 16 16 16 16 16 16 16
26 26 25 24 24 23 22 22 21 21 20 20 19 19 19 19 18 18 18 18 18 18 17 17 17 17 17 17 17 17 17 16 16 16 16 16 16 16 16 16 16 16 16
26 25 25 24 23 23 22 22 21 21 20 20 19 19 19 18 18 18 18 18 18 17 17 17 17 17 17 17 17 17 16 16 16 16 16 16 16 15 15 15 15 15 15
26 25 24 23 23 22 22 21 21 21 20 20 19 19 19 18 18 18 18 18 17 17 17 17 17 16 16 16 16 16 16 16 16 16 15 15 15 15 15 15 15 15 15
25 24 23 23 22 22 21 21 21 20 20 20 19 19 18 18 18 18 18 17 17 17 17 16 16 16 16 16 16 16 16 16 15 15 15 15 15 15 15 15 15 15 15
24 24 23 23 22 21 21 20 20 20 20 19 19 18 18 18 18 18 17 17 17 17 16 16 16 16 16 16 16 16 16 15 15 15 15 15 15 15 15 15 15 14 14
24 23 23 22 22 21 21 20 20 19 19 19 18 18 18 18 18 17 17 17 17 16 16 16 16 16 16 16 16 15 15 15 15 15 15 15 15 15 15 14 14 14 14
24 23 23 22 21 21 20 20 19 19 19 18 18 18 18 17 17 17 17 16 16 16 16 16 16 16 16 16 15 15 15 15 15 15 15 15 15 15 14 14 14 14 14
23 22 22 21 21 20 20 19 19 18 18 18 18 17 17 17 17 17 16 16 16 16 16 16 16 15 15 15 15 15 15 15 15 15 15 14 14 14 14 14 14 14 14
22 22 21 21 20 19 19 19 18 18 18 17 17 17 17 17 16 16 16 16 16 15 15 15 15 16 15 15 15 15 15 14 14 14 14 14 14 14 14 14 14 14 14
21 21 20 20 19 19 18 18 17 17 17 17 17 16 16 16 16 16 16 15 15 15 15 15 15 15 15 15 15 15 14 14 14 14 14 14 14 14 14 14 14 13 13
20 20 19 19 18 18 17 17 17 16 16 16 16 16 16 16 16 15 15 15 15 15 15 15 15 15 15 15 15 14 14 14 14 14 14 14 14 14 14 14 13 13 13
20 19 19 18 17 17 17 16 16 16 16 16 15 15 15 15 15 15 15 14 14 14 14 14 14 14 14 14 14 14 14 14 13 13 13 13 13 13 13 13 13 13 13
19 18 18 17 17 16 16 16 16 16 15 15 15 15 15 15 15 15 15 14 14 14 14 14 14 14 14 14 13 13 13 13 13 13 13 13 13 13 13 13 13 13 13
18 17 17 17 16 16 15 15 15 15 15 15 15 15 15 15 15 15 15 15 14 14 14 14 14 14 14 13 13 13 13 13 13 13 13 13 13 13 13 12 12 12 12
Wind_Speed
12 11 11 13 13 11 10 8 7 6 4 3 3 3 3 2 2 3 2 2 1 1 1 1 1 0 0 0 0 0 0 0 0 0 1 1 1 2 2 2 2 2 4
12 12 11 13 13 12 11 9 8 7 5 4 3 3 3 3 3 2 3 2 1 1 1 1 0 0 0 0 0 1 1 1 1 1 0 0 1 1 1 2 3 3 3
14 12 11 12 13 12 11 9 8 7 6 5 3 2 2 2 2 3 2 2 1 1 0 1 0 0 0 1 1 1 1 1 0 1 0 0 0 1 0 0 2 3 3
14 14 12 12 12 12 11 9 9 7 6 5 3 4 3 3 2 2 3 3 1 1 1 1 1 0 1 1 1 1 1 1 1 0 0 1 1 0 1 1 0 1 2
14 14 14 12 12 12 12 10 8 7 7 5 4 3 2 2 2 2 3 3 2 1 1 2 1 1 1 1 1 1 1 0 1 1 0 0 1 1 1 1 1 1 1
14 14 14 12 11 11 11 11 9 7 6 5 4 4 2 2 2 2 2 2 2 2 2 2 1 1 1 1 1 1 1 0 1 1 1 1 0 1 1 1 1 1 1
14 13 13 13 11 11 11 11 10 8 7 6 4 4 4 3 3 2 2 2 1 2 1 2 2 2 2 2 2 1 1 1 1 1 2 2 1 1 1 0 1 1 1
12 12 12 12 11 11 11 10 10 8 7 6 5 4 4 3 2 2 2 1 1 1 2 2 2 2 2 2 2 1 2 1 1 2 2 2 1 1 0 0 1 1 1
11 11 12 11 11 10 10 10 10 8 8 7 5 5 4 3 2 2 2 1 1 1 3 2 1 1 0 0 0 1 1 1 1 2 1 1 2 1 1 1 1 1 1
9 10 11 11 10 11 10 10 9 8 7 7 6 5 4 3 2 2 1 2 1 1 2 2 1 1 0 1 1 1 1 1 1 1 0 1 2 2 1 1 1 1 1
8 8 10 10 9 9 10 10 9 8 7 6 5 4 4 4 3 2 2 2 2 2 2 1 1 1 0 1 1 2 2 2 1 1 0 0 1 2 2 2 1 0 1
7 8 8 9 9 9 9 9 9 9 7 6 5 4 3 3 3 3 2 2 2 2 2 2 1 1 1 1 1 2 1 1 1 1 1 1 1 1 2 2 2 1 1
7 8 8 7 7 7 7 8 8 8 8 7 6 5 5 4 3 3 3 3 2 2 2 2 2 1 1 1 1 1 1 1 1 1 1 1 1 2 2 1 2 2 1
7 7 7 6 5 6 6 6 6 7 7 7 6 5 5 4 3 3 3 3 3 3 3 3 3 2 2 1 1 1 1 1 1 1 1 2 2 2 2 2 1 1 1
7 6 7 6 6 5 5 5 5 5 5 6 6 5 4 3 3 3 3 3 3 4 3 3 3 3 3 2 1 2 2 1 1 2 2 2 2 1 1 1 1 1 1
6 6 7 7 7 5 5 5 4 4 4 4 5 5 4 4 3 3 3 3 3 3 3 3 3 3 3 1 2 2 2 1 2 2 3 3 3 3 3 2 1 1 1
6 6 6 7 7 6 5 5 4 4 4 4 4 4 4 3 3 4 3 3 3 3 3 3 3 3 2 2 3 3 3 2 3 3 3 4 4 3 3 3 4 4 4
6 6 5 4 6 6 6 5 5 4 4 3 3 3 3 3 3 3 2 2 2 3 3 4 4 3 4 4 4 4 4 4 4 3 4 4 3 3 2 3 3 3 4
5 5 5 5 5 4 4 4 4 4 4 3 3 2 2 1 2 2 2 2 2 3 4 3 3 4 4 5 5 4 4 4 4 4 4 4 4 4 5 4 4 4 4
6 5 4 4 5 4 4 3 3 3 3 2 2 2 2 2 2 2 2 2 2 4 4 3 3 4 4 6 6 6 4 4 4 3 2 3 4 5 6 4 4 5 5
5 5 4 4 4 4 4 3 2 1 1 1 1 1 1 2 2 2 2 2 3 4 4 4 4 4 4 5 7 6 4 4 3 3 2 2 4 5 6 6 5 6 5
5 4 4 4 4 4 3 2 1 1 1 0 0 1 1 3 2 2 2 3 4 4 5 5 4 3 3 4 5 6 6 5 3 3 1 2 3 4 6 6 6 7 5
5 4 4 4 4 3 2 2 1 1 0 0 1 1 2 2 2 3 3 3 4 4 4 3 3 3 1 1 3 5 5 5 3 2 2 2 4 5 5 8 8 6 5
3 3 3 3 3 2 2 2 1 1 0 1 1 2 2 2 2 2 3 3 3 3 3 3 3 2 1 0 1 2 3 3 3 2 2 3 5 5 5 4 5 5 5
3 3 2 2 2 2 2 2 1 0 1 2 2 3 3 3 2 2 2 3 2 2 3 3 3 2 2 1 1 2 2 2 2 2 2 2 2 3 4 4 4 5 5
3 2 2 2 2 2 1 1 0 0 2 2 2 3 3 2 2 1 1 1 1 0 1 2 2 1 2 3 1 1 1 1 2 2 3 4 4 4 4 4 4 5 5
Wind_Direction
156 153 154 148 145 143 145 149 143 143 149 148 164 159 165 156 137 139 127 128 142 147 130 353 118 339 86 58 67 122 163 236 144 88 349 294 213 165 146 146 157 168 160
153 155 159 155 152 151 151 151 152 153 160 159 172 168 160 154 141 132 124 135 150 140 137 107 337 40 74 43 68 81 28 316 42 77 297 320 354 20 150 172 167 166 142
160 159 160 156 154 156 161 162 158 156 163 166 169 152 146 150 143 143 135 152 147 137 26 107 48 352 157 126 155 119 181 259 297 69 30 37 36 329 311 177 143 152 151
160 159 160 158 157 159 159 155 157 158 161 173 175 176 163 162 160 150 145 149 146 158 137 113 97 54 43 98 207 155 209 229 299 344 353 61 104 186 313 317 43 161 173
161 158 159 159 160 159 158 155 151 158 160 170 167 177 169 170 149 144 139 147 146 159 161 139 149 178 156 160 163 107 158 185 286 296 275 238 228 233 211 256 260 259 205
158 156 157 156 159 157 155 152 149 153 162 170 168 166 178 180 153 155 159 176 166 167 161 133 150 178 178 183 150 192 161 197 286 297 303 277 254 234 235 243 242 240 249
156 153 154 158 161 160 157 153 154 160 165 171 174 169 189 198 189 184 192 202 169 149 148 140 156 178 176 168 161 178 190 205 249 257 285 293 286 313 330 309 280 260 241
152 153 157 159 163 163 158 154 156 162 167 171 171 169 187 200 194 195 205 210 190 132 131 121 133 168 185 180 174 198 194 201 258 266 273 288 303 291 276 285 276 281 274
152 154 157 160 161 161 156 156 158 166 171 174 170 178 184 199 190 189 200 202 126 152 113 127 144 91 124 244 187 240 247 218 254 272 274 284 293 272 254 239 221 229 269
150 154 157 160 163 162 157 156 157 165 172 172 177 183 182 186 191 191 152 129 110 71 125 138 122 124 343 246 230 247 233 217 253 255 302 316 322 329 298 238 231 245 251
150 151 153 155 156 157 156 155 157 162 166 168 168 173 172 176 180 180 169 161 150 142 138 161 171 184 218 292 253 235 206 220 242 275 226 267 314 315 324 323 316 265 249
142 144 145 146 154 160 159 159 162 165 166 163 158 158 154 172 179 178 173 169 167 173 184 193 202 216 208 226 275 275 234 214 211 223 245 268 279 282 298 319 319 295 235
129 135 133 140 147 146 147 156 165 166 167 163 163 165 170 174 182 181 176 180 184 195 196 192 209 226 238 209 232 314 298 262 235 205 204 222 257 273 274 295 299 309 310
130 133 128 133 131 133 139 150 163 162 165 162 168 169 175 176 176 179 175 182 188 200 204 201 210 211 222 204 226 228 268 265 249 231 214 224 226 241 250 265 272 286 306
139 134 130 131 124 129 136 144 152 147 154 158 162 164 168 174 175 176 180 186 198 204 202 212 221 220 223 225 209 223 241 251 251 241 217 223 216 202 225 255 281 275 261
144 139 134 130 130 133 135 131 134 142 147 152 152 154 164 172 177 185 187 191 198 209 208 220 232 241 248 192 164 200 257 239 238 245 232 220 213 206 204 214 241 230 250
134 134 138 147 146 147 136 133 128 130 133 138 141 153 164 179 190 204 196 202 206 215 223 226 229 232 229 215 201 210 222 247 249 252 245 246 239 206 205 213 226 231 230
123 128 135 136 136 141 147 149 144 137 135 136 141 156 178 185 189 196 208 220 221 224 231 233 227 222 229 216 215 227 220 241 244 238 238 235 241 240 216 228 230 237 239
107 118 127 123 116 120 135 141 147 141 142 147 159 170 174 198 201 199 211 221 232 240 240 233 226 223 227 220 218 223 231 239 246 240 246 232 219 218 213 222 234 240 247
111 115 116 114 113 115 127 138 149 146 155 156 167 169 186 219 228 225 235 243 254 257 252 249 246 237 235 221 210 214 240 242 243 242 232 211 207 218 208 217 233 242 247
95 102 107 107 103 110 119 128 128 137 133 120 132 166 206 241 235 236 248 252 256 260 256 255 253 245 235 222 207 210 234 253 250 247 232 210 205 216 215 218 230 236 247
98 95 91 90 86 89 105 119 123 91 90 128 203 224 236 263 267 245 250 256 258 259 255 252 252 250 235 219 206 209 227 261 267 259 228 203 214 222 221 220 232 242 248
98 93 94 92 90 96 115 134 111 96 84 20 277 259 253 253 261 257 252 249 248 251 252 249 251 257 253 175 178 203 231 247 252 303 338 285 254 242 230 224 230 235 236
90 93 103 103 99 98 96 91 99 117 152 244 257 258 245 240 245 248 253 254 259 262 265 271 263 251 246 195 184 228 233 235 239 275 296 275 256 252 247 239 231 231 237
90 81 81 93 89 83 91 89 78 109 255 253 257 261 262 254 246 254 282 270 301 281 260 269 271 273 254 225 222 216 225 233 234 252 258 264 259 244 236 233 231 233 237
82 78 78 78 93 100 93 72 71 21 290 281 275 276 271 264 254 257 279 8 223 182 182 218 230 241 195 190 203 202 193 225 216 228 248 248 247 246 245 246 241 237 237
Height
1492 1495 1498 1501 1503 1505 1507 1510 1512 1514 1516 1517 1519 1520 1521 1523 1523 1524 1524 1525 1525 1525 1525 1525 1525 1525 1525 1525 1525 1526 1527 1528 1529 1529 1529 1529 1529 1529 1530 1530 1531 1532 1533
1491 1494 1497 1500 1502 1504 1507 1509 1511 1513 1515 1517 1518 1520 1521 1522 1523 1523 1524 1524 1524 1524 1525 1524 1524 1524 1524 1525 1525 1525 1526 1527 1528 1528 1528 1529 1530 1529 1530 1530 1530 1531 1532
1488 1492 1495 1499 1501 1503 1506 1508 1510 1512 1514 1516 1518 1520 1520 1522 1523 1523 1523 1523 1524 1524 1524 1524 1523 1523 1524 1524 1524 1525 1525 1526 1527 1528 1528 1529 1529 1529 1530 1530 1530 1530 1530
1485 1490 1494 1497 1500 1502 1504 1507 1509 1511 1512 1514 1516 1518 1519 1520 1521 1522 1522 1522 1523 1523 1523 1523 1523 1523 1523 1523 1523 1524 1525 1526 1526 1527 1527 1528 1529 1529 1529 1530 1529 1529 1529
1482 1487 1491 1495 1498 1501 1503 1505 1507 1509 1511 1513 1515 1517 1518 1519 1520 1521 1521 1521 1522 1522 1522 1522 1522 1522 1522 1523 1523 1524 1524 1525 1525 1526 1526 1527 1528 1528 1528 1528 1529 1529 1529
1479 1484 1489 1493 1497 1500 1502 1504 1505 1508 1510 1512 1514 1515 1516 1518 1519 1519 1520 1520 1521 1521 1521 1521 1522 1522 1522 1522 1523 1523 1524 1524 1524 1525 1525 1526 1526 1526 1527 1527 1527 1527 1528
1477 1482 1487 1491 1495 1498 1501 1503 1504 1506 1508 1510 1512 1514 1515 1516 1517 1518 1519 1519 1520 1520 1520 1520 1520 1521 1521 1522 1522 1523 1523 1523 1523 1524 1524 1525 1525 1525 1525 1526 1526 1526 1527
1475 1480 1485 1489 1493 1497 1499 1501 1503 1505 1507 1508 1510 1512 1513 1514 1515 1517 1517 1518 1519 1519 1519 1519 1519 1520 1520 1521 1521 1521 1522 1522 1522 1523 1523 1523 1523 1524 1523 1524 1525 1525 1525
1474 1478 1483 1487 1491 1495 1497 1500 1502 1503 1505 1507 1508 1510 1511 1513 1514 1515 1516 1517 1517 1518 1518 1518 1518 1519 1519 1519 1520 1520 1520 1521 1521 1521 1521 1521 1521 1522 1522 1522 1523 1524 1524
1473 1477 1481 1485 1489 1492 1495 1497 1499 1502 1504 1506 1507 1508 1509 1511 1512 1513 1514 1514 1515 1516 1516 1516 1517 1517 1518 1518 1518 1518 1519 1519 1519 1519 1519 1519 1520 1520 1521 1521 1522 1522 1522
1472 1476 1479 1484 1488 1492 1494 1496 1498 1500 1502 1504 1505 1507 1508 1510 1510 1511 1511 1512 1513 1514 1514 1515 1515 1516 1516 1516 1516 1516 1517 1517 1517 1517 1517 1517 1518 1518 1518 1519 1520 1520 1520
1472 1476 1479 1483 1488 1491 1493 1495 1497 1499 1501 1503 1504 1505 1507 1508 1509 1509 1509 1510 1511 1512 1512 1512 1513 1513 1514 1514 1514 1515 1515 1515 1515 1515 1515 1515 1516 1516 1517 1517 1518 1518 1518
1473 1476 1480 1483 1487 1489 1492 1494 1496 1498 1499 1500 1502 1503 1504 1506 1507 1507 1507 1508 1508 1509 1510 1510 1510 1511 1511 1512 1512 1512 1512 1512 1513 1513 1513 1513 1514 1514 1515 1515 1515 1516 1516
1473 1476 1479 1483 1486 1489 1491 1493 1495 1496 1498 1499 1500 1502 1503 1504 1504 1505 1505 1506 1507 1507 1508 1508 1508 1509 1509 1509 1509 1510 1510 1510 1510 1510 1511 1511 1511 1512 1513 1513 1513 1514 1514
1473 1476 1479 1482 1485 1488 1490 1492 1494 1495 1496 1498 1499 1500 1501 1502 1502 1503 1504 1504 1505 1505 1506 1506 1506 1506 1506 1507 1507 1507 1507 1507 1507 1508 1508 1508 1509 1510 1510 1511 1511 1512 1512
1474 1476 1479 1481 1484 1487 1489 1490 1492 1493 1495 1496 1497 1498 1499 1500 1501 1501 1502 1502 1503 1503 1503 1504 1504 1504 1504 1504 1504 1504 1504 1505 1505 1505 1505 1506 1507 1507 1508 1508 1509 1510 1510
1473 1476 1478 1480 1482 1484 1487 1489 1490 1491 1493 1494 1495 1496 1497 1498 1499 1499 1500 1500 1500 1501 1501 1501 1501 1501 1502 1502 1502 1502 1502 1502 1502 1502 1503 1503 1504 1505 1505 1506 1506 1507 1507
1473 1476 1478 1480 1482 1484 1486 1488 1489 1490 1491 1492 1494 1495 1495 1496 1496 1497 1497 1497 1498 1498 1498 1498 1498 1498 1498 1499 1499 1499 1499 1499 1499 1499 1499 1500 1501 1502 1503 1503 1504 1504 1504
1474 1476 1478 1479 1481 1483 1484 1486 1487 1489 1490 1491 1492 1493 1493 1494 1494 1494 1494 1495 1495 1495 1495 1495 1495 1495 1495 1495 1496 1496 1496 1496 1496 1496 1497 1497 1498 1499 1499 1500 1500 1500 1501
1474 1476 1478 1479 1480 1482 1484 1485 1486 1487 1488 1489 1490 1491 1491 1491 1491 1491 1492 1492 1492 1492 1492 1492 1492 1492 1492 1492 1493 1493 1493 1493 1493 1493 1493 1494 1494 1495 1496 1496 1496 1496 1497
1474 1476 1477 1479 1479 1481 1482 1483 1484 1485 1486 1487 1488 1488 1489 1489 1489 1489 1489 1489 1489 1489 1489 1488 1489 1488 1489 1489 1489 1490 1490 1489 1490 1490 1490 1490 1491 1491 1492 1492 1492 1492 1493
1474 1476 1476 1477 1478 1479 1480 1481 1482 1483 1484 1485 1485 1486 1486 1487 1487 1486 1486 1486 1486 1486 1486 1486 1485 1485 1485 1486 1486 1486 1486 1486 1486 1487 1487 1487 1487 1487 1487 1488 1488 1489 1489
1474 1475 1476 1476 1477 1478 1479 1479 1480 1481 1482 1482 1483 1483 1483 1483 1484 1483 1483 1483 1483 1483 1483 1483 1483 1482 1482 1482 1482 1482 1483 1483 1483 1484 1484 1484 1483 1483 1483 1484 1484 1485 1485
1473 1474 1475 1476 1476 1477 1477 1478 1479 1479 1480 1480 1480 1480 1480 1480 1480 1480 1481 1481 1481 1481 1480 1480 1480 1479 1479 1479 1479 1479 1479 1480 1480 1480 1480 1480 1480 1480 1480 1480 1480 1480 1480
1472 1473 1474 1475 1475 1476 1476 1477 1477 1477 1478 1478 1478 1478 1478 1478 1477 1477 1478 1478 1477 1478 1478 1477 1477 1476 1476 1476 1476 1476 1476 1476 1476 1476 1476 1476 1476 1476 1476 1476 1476 1477 1477
1471 1472 1473 1474 1474 1475 1475 1475 1475 1475 1475 1475 1475 1475 1475 1476 1475 1475 1475 1474 1474 1474 1474 1473 1473 1473 1473 1473 1473 1474 1474 1474 1473 1473 1473 1473 1473 1473 1473 1473 1473 1472 1472